Weather History for Pascagoula, MS

Change the Weather History Date:

Tuesday, November 5, 2013

  Actual Average Record
Temperature  
Mean Temperature 67 °F -  
Max Temperature 73 °F 71 °F 85 °F (1975)
Min Temperature 61 °F 50 °F 27 °F (1991)
Cooling Degree Days 2    
Growing Degree Days 17 (Base 50)    
Moisture  
Dew Point 56 °F    
Average Humidity 69    
Maximum Humidity 84    
Minimum Humidity 59    
Precipitation  
Precipitation 0.00 in - - ()
Sea Level Pressure  
Sea Level Pressure 30.20 in    
Wind  
Wind Speed 9 mph (ENE)    
Max Wind Speed 14 mph    
Max Gust Speed 20 mph    
Visibility 10 miles    
Events      
Averages and records for this station are not official NWS values.
T = Trace of Precipitation, MM = Missing Value Source: NWS Daily Summary

Daily Weather History Graph

Daily Weather History Graph

Search for Another Location

Airport:

Trip Planner

Search our weather history database for the weather conditions in past years. The results will help you decide how hot, cold, wet, or windy it might be!

Date:

Astronomy

Nov. 05, 2013 Rise Set
Actual Time 6:11 AM CST 5:03 PM CST
Civil Twilight 5:46 AM CST 5:28 PM CST
Nautical Twilight 5:18 AM CST 5:56 PM CST
Astronomical Twilight 4:50 AM CST 6:24 PM CST
Moon 8:21 AM CST (11/5) 7:10 PM CST (11/5)
Length of Visible Light 11h 41m
Length of Day
10h 51m
Waxing Crescent, 7% of the Moon is Illuminated
Nov 5
Waxing Crescent
Nov 9
First Quarter
Nov 17
Full
Nov 25
Last Quarter
Dec 2
New

Hourly Weather History & Observations

Time (CST) Temp. Dew Point Humidity Pressure Visibility Wind Dir Wind Speed Gust Speed Precip Events Conditions
12:53 AM 64.0 °F 54.0 °F 70% 30.21 in 10.0 mi ENE 9.2 mph - N/A   Mostly Cloudy
1:53 AM 64.0 °F 54.0 °F 70% 30.20 in 10.0 mi ENE 8.1 mph 16.1 mph N/A   Overcast
2:53 AM 63.0 °F 55.0 °F 75% 30.21 in 10.0 mi ENE 10.4 mph - N/A   Overcast
3:53 AM 63.0 °F 54.0 °F 72% 30.21 in 10.0 mi ENE 8.1 mph - N/A   Overcast
4:53 AM 62.1 °F 53.1 °F 72% 30.22 in 10.0 mi ENE 8.1 mph - N/A   Overcast
5:53 AM 61.0 °F 52.0 °F 72% 30.23 in 10.0 mi ENE 10.4 mph - N/A   Mostly Cloudy
6:53 AM 61.0 °F 51.1 °F 70% 30.25 in 10.0 mi ENE 10.4 mph - N/A   Overcast
7:53 AM 61.0 °F 50.0 °F 67% 30.26 in 10.0 mi East 11.5 mph - N/A   Overcast
8:53 AM 66.0 °F 53.1 °F 63% 30.27 in 10.0 mi ENE 11.5 mph 19.6 mph N/A   Partly Cloudy
9:53 AM 68.0 °F 55.0 °F 63% 30.27 in 10.0 mi East 12.7 mph - N/A   Mostly Cloudy
10:53 AM 70.0 °F 55.9 °F 61% 30.25 in 10.0 mi ENE 13.8 mph - N/A   Mostly Cloudy
11:53 AM 72.0 °F 57.0 °F 59% 30.23 in 10.0 mi Variable 6.9 mph - N/A   Mostly Cloudy
12:53 PM 72.0 °F 57.0 °F 59% 30.20 in 10.0 mi ESE 11.5 mph - N/A   Overcast
1:53 PM 73.0 °F 57.9 °F 59% 30.19 in 10.0 mi ENE 9.2 mph - N/A   Overcast
2:53 PM 73.0 °F 59.0 °F 61% 30.17 in 10.0 mi East 12.7 mph - N/A   Overcast
3:53 PM 73.9 °F 60.1 °F 62% 30.17 in 10.0 mi East 9.2 mph - N/A   Scattered Clouds
4:53 PM 72.0 °F 61.0 °F 68% 30.16 in 10.0 mi Calm Calm - N/A   Overcast
5:53 PM 68.0 °F 61.0 °F 78% 30.17 in 10.0 mi NE 4.6 mph - N/A   Mostly Cloudy
6:53 PM 64.0 °F 59.0 °F 84% 30.17 in 10.0 mi NE 3.5 mph - N/A   Partly Cloudy
7:53 PM 66.0 °F 59.0 °F 78% 30.17 in 10.0 mi ENE 3.5 mph - N/A   Clear
8:53 PM 64.9 °F 57.9 °F 78% 30.18 in 10.0 mi East 6.9 mph - N/A   Clear
9:53 PM 64.9 °F 55.9 °F 73% 30.18 in 10.0 mi East 5.8 mph - N/A   Clear
10:53 PM 64.0 °F 55.0 °F 73% 30.18 in 10.0 mi ENE 6.9 mph - N/A   Clear
11:53 PM 62.1 °F 55.0 °F 78% 30.17 in 10.0 mi East 4.6 mph - N/A   Clear